Temperature
12 12 12 12 12 12 12 12 12 12 12 13 13 13 13 12 13 13 14 15 15 15 15 15 15 15 15 15 16 16 16 16 16 16 15 15 16 16 16 16 16 16 16
11 12 12 12 12 12 12 12 12 12 12 12 12 12 12 12 12 13 13 14 14 14 14 14 14 15 15 15 15 15 16 16 16 16 15 15 15 16 16 16 16 16 16
11 11 12 12 12 12 12 12 12 12 12 12 12 12 12 12 12 12 13 13 14 14 14 14 14 14 14 15 15 15 15 15 16 16 15 15 15 15 16 16 16 16 16
9 10 10 11 11 12 12 12 12 12 12 12 12 12 12 12 12 12 12 13 13 13 13 14 14 14 14 14 14 15 15 15 15 16 16 15 15 15 15 16 16 15 15
7 7 8 9 10 10 11 11 11 11 11 12 12 12 12 12 12 12 12 12 13 13 13 13 14 14 14 14 14 14 14 15 15 15 15 15 15 15 15 15 15 15 15
5 6 6 7 8 9 9 10 10 11 11 11 11 11 11 11 11 12 12 12 12 13 13 13 13 13 13 13 14 14 14 14 14 15 15 15 15 15 14 14 14 14 14
4 4 5 5 6 7 8 8 9 10 10 10 10 10 11 11 11 11 11 12 12 12 12 13 13 13 13 13 13 13 13 14 14 14 14 14 14 14 14 14 14 14 14
2 3 3 4 5 6 7 8 8 9 9 9 9 10 10 10 11 11 11 12 12 12 12 12 12 13 13 13 13 13 13 13 13 13 13 13 13 14 13 13 14 14 14
1 2 2 3 3 4 5 6 7 8 8 9 9 9 9 10 10 11 11 11 11 11 12 12 12 12 13 13 13 13 13 13 13 13 13 13 13 13 13 13 13 13 13
1 1 2 2 2 3 4 5 6 6 7 8 8 8 9 9 10 10 10 10 11 11 11 11 11 12 12 12 13 13 13 13 13 13 13 13 13 13 13 13 13 13 13
-2 -1 0 1 1 2 3 4 5 6 6 6 7 7 8 9 9 10 10 10 10 10 10 11 11 11 12 12 12 12 12 13 13 13 13 12 12 12 12 12 12 13 13
-5 -3 -2 -1 -1 0 1 3 4 5 5 6 6 7 7 8 9 9 9 9 9 9 9 10 10 11 11 11 12 12 12 12 12 12 12 12 12 12 12 12 12 12 12
-6 -6 -4 -3 -2 -2 -1 1 2 3 4 5 6 6 6 7 8 9 9 9 9 9 9 9 9 10 10 10 11 11 11 11 11 11 11 11 11 11 11 12 12 12 12
-6 -6 -5 -4 -3 -2 -2 -1 1 2 3 4 5 6 6 6 7 8 9 9 9 9 9 9 9 9 9 9 9 9 10 10 10 10 10 10 10 10 10 11 11 11 11
-7 -6 -6 -5 -4 -3 -2 -1 -0 1 3 3 4 5 5 6 6 7 8 8 8 8 8 8 9 9 9 9 9 9 9 9 9 9 9 9 9 9 10 10 10 10 10
-7 -7 -6 -5 -4 -3 -2 -1 -1 1 2 3 4 4 4 5 6 7 8 8 8 8 8 8 8 8 8 8 8 8 8 8 8 9 9 9 9 9 9 9 9 9 9
-7 -7 -6 -6 -5 -4 -3 -2 -1 0 1 2 3 3 4 4 5 6 6 7 7 7 7 7 7 8 8 8 8 7 7 7 8 8 8 8 8 8 8 8 8 8 8
-7 -7 -7 -6 -5 -5 -4 -3 -1 -1 0 1 1 2 3 3 3 4 5 6 6 6 6 6 6 7 7 7 7 7 7 7 7 7 7 7 7 7 7 7 7 7 7
-8 -7 -7 -6 -6 -5 -5 -4 -3 -2 -1 -0 -0 0 1 1 2 3 4 4 5 5 6 6 6 6 6 7 7 6 6 6 6 6 6 6 7 7 7 6 6 6 6
-9 -8 -8 -7 -6 -6 -6 -5 -5 -4 -3 -2 -2 -1 -1 -0 0 1 2 3 3 4 4 5 5 5 5 6 6 6 6 6 6 6 6 6 6 6 6 6 6 6 6
-9 -9 -8 -7 -7 -6 -6 -6 -6 -5 -5 -4 -3 -3 -2 -1 -1 -0 0 1 1 2 2 3 3 4 4 5 5 6 6 6 6 6 5 5 5 5 5 5 5 5 5
-10 -10 -9 -8 -7 -7 -7 -7 -8 -7 -6 -6 -5 -5 -4 -3 -2 -1 -1 -1 -0 1 1 1 2 3 3 4 4 5 5 5 5 5 5 5 4 5 5 5 4 4 4
-11 -11 -10 -9 -8 -8 -8 -8 -9 -8 -8 -8 -7 -6 -6 -5 -3 -3 -2 -2 -2 -1 -0 0 1 1 2 2 3 3 3 4 4 4 4 4 4 4 4 4 4 4 3
-12 -12 -11 -10 -9 -9 -8 -8 -9 -9 -9 -9 -9 -8 -8 -7 -6 -5 -5 -4 -4 -3 -2 -2 -1 -1 -0 0 1 2 2 2 3 3 3 3 2 2 2 3 3 2 2
-13 -13 -12 -12 -11 -10 -9 -9 -9 -9 -9 -9 -9 -9 -8 -8 -8 -7 -6 -6 -5 -5 -5 -4 -4 -3 -3 -2 -1 -0 1 1 2 2 2 2 1 1 1 1 1 1 1
-14 -13 -13 -12 -12 -11 -10 -10 -9 -9 -9 -9 -9 -9 -9 -9 -9 -8 -8 -7 -7 -7 -6 -6 -5 -5 -5 -4 -3 -2 -2 -1 -0 -0 -0 0 0 0 -0 -0 -0 -0 -0
Wind_Speed
9 10 8 8 7 6 5 4 4 4 5 6 6 6 6 8 9 11 12 16 18 18 19 21 20 21 21 20 20 19 18 17 15 14 12 11 9 8 6 5 4 4 4
15 11 10 8 7 8 6 5 5 5 5 5 6 6 6 8 9 11 13 15 18 19 20 22 23 22 22 22 21 20 19 19 17 16 14 12 11 9 7 6 5 4 4
20 15 10 12 10 12 9 6 6 4 5 5 7 8 7 6 7 9 12 13 14 17 20 23 24 23 23 22 22 21 21 21 19 18 16 14 12 11 9 7 6 5 4
23 17 10 11 15 14 7 6 6 5 6 6 6 7 7 7 8 8 10 11 12 13 15 22 24 24 23 23 22 22 22 22 21 20 18 16 14 12 10 8 6 5 4
23 19 11 10 17 10 9 9 7 6 6 7 7 8 7 7 8 7 7 8 11 13 13 16 20 22 23 23 23 23 23 23 23 22 20 18 15 13 11 9 7 5 4
22 19 12 14 14 11 10 10 10 8 7 7 8 8 7 7 6 6 7 6 7 11 13 12 12 14 20 24 25 24 24 24 25 23 22 20 17 15 12 10 7 6 4
24 19 12 12 12 12 12 13 11 11 7 5 5 5 5 6 6 6 6 6 7 8 10 10 10 10 11 18 23 24 24 24 25 25 24 22 19 16 13 10 8 6 5
23 19 14 14 14 13 14 13 12 8 6 5 6 5 5 4 4 5 5 6 7 5 6 7 9 9 11 11 14 19 21 22 23 25 26 25 22 18 14 10 8 7 6
22 20 17 13 14 12 13 14 13 11 10 8 7 6 5 7 4 3 2 3 4 5 6 5 6 10 12 12 12 16 18 20 22 22 25 25 23 19 15 12 10 8 6
20 19 18 15 13 13 13 14 13 12 12 11 7 7 5 4 5 3 2 1 2 3 4 4 6 8 11 12 13 16 18 19 22 23 23 24 22 19 16 13 11 9 9
17 19 18 14 14 13 14 15 16 15 11 11 9 5 5 4 3 4 3 2 1 1 1 3 5 5 7 10 11 14 17 18 20 23 24 22 20 18 15 13 14 12 10
15 19 21 15 15 15 15 15 15 17 15 13 10 7 6 5 5 4 4 3 3 2 1 1 3 4 4 7 10 15 16 15 15 18 20 19 17 16 15 16 15 13 13
17 20 21 20 18 18 17 16 15 16 16 14 12 10 9 7 5 6 6 4 3 1 1 1 1 3 4 6 9 14 14 15 16 16 17 18 18 18 18 16 15 14 13
17 20 22 22 22 21 19 17 15 15 14 13 12 10 9 8 6 5 6 6 4 1 1 2 1 2 4 5 9 13 13 18 19 20 20 20 19 18 18 17 16 15 14
18 21 22 23 22 21 19 18 14 15 13 12 10 9 8 6 6 5 5 5 7 5 5 4 2 1 2 5 12 11 12 18 20 21 22 21 19 18 18 18 17 16 15
19 21 22 22 22 20 19 16 14 13 11 9 6 6 5 4 4 4 4 4 4 5 5 5 4 1 2 4 10 11 13 20 20 21 21 21 21 19 18 18 17 16 15
20 20 20 21 20 19 19 16 13 10 8 4 3 3 3 3 4 4 5 5 4 4 4 2 1 1 3 5 6 7 10 12 15 20 21 21 20 19 18 17 17 16 15
19 19 19 20 20 19 19 19 17 11 6 4 3 2 3 2 3 3 4 6 5 5 4 3 2 2 3 3 5 6 4 9 11 19 21 21 20 18 17 16 16 15 14
19 19 18 19 19 18 19 20 19 17 13 10 9 7 6 5 5 4 4 5 4 4 4 4 2 2 3 2 4 3 4 3 5 14 20 20 20 19 18 17 15 14 14
19 18 17 17 18 17 15 17 18 18 16 14 12 12 11 9 6 6 5 5 4 4 4 4 3 3 2 2 3 4 4 3 3 3 10 14 16 16 15 14 14 14 13
19 18 16 16 17 16 13 14 14 15 16 16 15 14 15 17 16 8 5 4 4 3 3 4 4 3 2 2 2 2 3 4 4 2 3 3 4 5 7 11 14 15 14
18 18 16 16 16 15 21 20 14 10 12 13 13 13 13 16 18 20 20 17 13 7 3 2 2 4 3 2 2 2 4 4 3 2 3 3 3 4 4 8 15 17 17
16 17 15 16 16 19 28 21 18 10 10 11 12 11 11 13 16 13 17 20 20 22 17 5 4 4 3 2 2 3 3 3 3 3 2 3 3 5 5 13 18 18 17
13 13 13 15 15 19 28 24 15 9 8 10 11 11 11 11 12 13 12 13 13 14 14 12 10 9 8 7 6 3 4 7 6 5 4 3 3 4 6 10 15 17 15
10 12 11 13 15 18 25 25 15 7 7 9 10 10 9 9 16 16 12 11 11 12 19 23 24 22 23 20 12 5 4 4 3 4 6 3 3 3 4 6 11 14 13
13 13 13 12 13 14 22 24 18 5 7 7 8 10 14 15 19 18 11 9 10 9 10 13 16 18 17 18 20 12 7 5 4 4 6 3 3 3 3 3 4 9 10
Wind_Direction
353 344 330 315 296 287 281 282 275 270 264 255 245 236 238 244 248 249 253 254 254 254 256 253 240 224 216 212 209 207 205 206 206 205 203 201 201 201 199 193 187 187 199
357 349 338 328 313 299 278 262 257 264 267 262 259 247 241 245 247 248 248 251 251 250 250 250 245 231 223 218 213 210 208 209 209 208 206 205 205 205 206 208 202 197 205
357 351 342 336 330 320 298 277 263 251 254 253 255 254 248 243 243 245 244 242 246 248 246 245 244 235 225 222 219 214 211 212 211 208 207 208 209 210 211 212 211 213 221
354 348 341 336 332 327 310 290 274 267 257 248 249 250 244 242 240 240 241 238 237 242 244 242 240 236 230 225 224 222 216 214 213 209 207 207 208 209 210 209 207 212 225
349 344 333 331 331 327 319 307 289 262 260 258 255 252 239 235 238 236 232 232 231 233 236 240 237 233 229 228 227 226 224 219 215 211 208 205 205 207 207 205 204 209 221
343 340 332 331 331 327 323 318 303 281 256 253 260 257 244 235 234 232 236 235 229 227 225 227 233 233 229 227 227 229 230 226 222 214 208 202 203 204 203 202 201 204 216
340 337 335 331 330 325 317 312 307 292 272 248 250 262 262 244 239 238 233 232 232 226 216 213 219 226 232 231 226 227 229 228 226 220 210 200 199 199 200 202 204 208 215
337 336 335 331 327 324 320 317 316 302 281 237 222 237 265 284 255 240 234 227 229 222 219 211 208 217 223 224 223 222 224 226 227 226 216 203 196 195 196 201 211 219 221
333 333 331 329 324 322 318 317 312 305 294 271 223 207 208 227 243 269 244 232 225 211 218 220 219 223 222 220 219 216 214 221 226 224 218 206 195 191 194 201 211 215 210
327 328 328 324 320 319 315 314 314 307 296 281 253 226 225 195 182 216 249 247 239 202 210 218 227 229 225 219 215 209 206 209 218 219 212 204 197 195 197 197 192 163 136
326 327 324 320 318 316 312 311 312 307 296 280 263 229 219 234 208 163 198 228 222 199 208 210 211 220 221 215 208 202 197 198 208 211 206 201 195 192 193 183 157 139 131
330 331 329 324 319 315 309 308 303 300 294 280 266 237 206 190 191 172 170 189 205 235 273 244 191 189 189 192 190 178 172 169 169 176 176 176 176 172 159 145 137 131 125
330 331 331 325 319 312 307 301 296 293 290 277 263 248 236 222 187 172 162 162 179 223 301 270 226 174 165 163 162 156 150 141 132 127 129 133 134 134 136 137 134 130 122
326 326 326 323 317 311 305 298 293 286 285 272 263 251 241 227 200 183 166 152 149 182 270 251 287 189 160 160 157 150 147 139 132 128 124 123 126 132 135 133 131 129 123
325 325 326 325 320 314 305 297 289 284 279 266 253 242 234 219 203 191 163 155 153 167 210 226 225 201 156 153 159 151 147 147 144 141 138 136 136 138 136 132 129 126 122
327 326 330 329 326 322 316 306 292 282 276 263 246 218 206 199 185 170 148 131 132 145 182 211 202 170 151 147 164 154 153 152 149 147 145 142 143 143 138 135 131 128 125
329 330 334 335 335 337 335 329 316 296 282 275 270 200 164 159 153 134 129 124 119 126 144 177 123 116 130 147 148 148 152 149 154 153 152 150 148 147 144 140 138 137 134
332 332 337 340 345 355 357 353 347 341 341 3 15 47 67 75 87 109 120 124 129 125 133 151 138 97 97 151 147 149 150 158 158 162 160 158 156 155 154 150 149 146 141
335 336 343 345 347 358 11 10 7 5 12 22 26 34 49 72 67 64 76 94 107 118 122 136 134 87 78 86 124 122 131 133 162 172 167 166 165 164 163 161 159 155 150
339 340 346 348 349 351 13 19 14 12 13 18 23 28 34 43 58 65 67 70 87 107 125 131 128 110 93 63 118 134 125 105 100 142 168 170 172 168 168 167 163 157 153
342 342 346 352 352 350 12 32 21 15 14 17 20 24 30 32 36 54 75 67 78 96 124 141 139 132 114 91 111 123 133 115 65 48 115 105 126 115 122 140 142 140 136
343 345 348 351 353 352 7 27 33 21 21 21 20 20 26 31 28 38 54 58 60 62 77 109 124 128 102 80 60 88 130 136 132 19 95 64 70 92 95 111 125 122 117
343 346 349 352 351 349 360 13 28 31 28 28 26 24 29 32 37 37 42 43 43 45 47 55 72 86 98 73 78 77 73 91 102 11 52 87 66 75 76 104 110 109 105
341 343 342 348 349 350 355 6 23 27 27 25 23 26 32 36 49 53 51 48 44 46 54 54 57 56 67 67 62 72 96 101 86 37 9 107 94 81 69 73 95 98 93
341 342 343 346 350 349 353 1 18 5 19 20 17 20 37 46 60 62 58 54 47 42 54 63 63 57 55 55 54 57 62 104 100 48 16 66 88 86 75 56 65 80 80
346 347 347 346 348 345 351 356 15 15 21 20 18 13 38 64 68 65 59 59 59 54 59 60 59 55 51 49 51 47 43 58 84 74 16 42 69 88 93 66 50 53 59
Height
1506 1505 1504 1503 1502 1502 1501 1501 1501 1501 1500 1500 1500 1500 1500 1500 1500 1500 1501 1503 1506 1507 1509 1511 1513 1516 1519 1521 1523 1525 1527 1529 1531 1533 1535 1537 1539 1541 1543 1544 1546 1547 1549
1503 1501 1500 1499 1498 1497 1496 1496 1495 1495 1495 1495 1495 1495 1495 1495 1495 1495 1496 1497 1499 1502 1504 1506 1508 1511 1514 1516 1518 1520 1523 1525 1527 1530 1532 1534 1536 1538 1540 1542 1543 1545 1547
1500 1497 1495 1494 1493 1492 1490 1490 1490 1490 1489 1489 1489 1489 1489 1489 1490 1491 1491 1492 1493 1496 1498 1500 1503 1506 1508 1511 1513 1516 1519 1521 1524 1526 1529 1531 1533 1535 1537 1539 1541 1543 1544
1496 1493 1491 1489 1487 1485 1485 1484 1484 1484 1483 1483 1482 1483 1483 1483 1484 1485 1486 1487 1488 1490 1492 1495 1498 1500 1503 1506 1508 1511 1514 1517 1520 1522 1525 1528 1530 1532 1535 1536 1538 1540 1542
1491 1488 1485 1483 1480 1478 1478 1477 1476 1476 1476 1476 1476 1476 1476 1477 1477 1479 1480 1481 1482 1484 1486 1489 1492 1494 1497 1500 1503 1506 1509 1512 1515 1518 1521 1524 1526 1529 1531 1533 1535 1537 1538
1486 1482 1479 1477 1474 1471 1470 1469 1468 1468 1468 1470 1470 1469 1469 1470 1471 1471 1473 1474 1476 1478 1480 1483 1485 1488 1491 1494 1497 1500 1504 1506 1509 1512 1516 1519 1522 1525 1528 1530 1532 1533 1535
1480 1476 1472 1469 1468 1465 1463 1463 1461 1460 1460 1463 1463 1463 1462 1463 1463 1465 1466 1467 1469 1471 1473 1475 1478 1481 1484 1487 1490 1494 1497 1500 1504 1507 1511 1514 1518 1521 1524 1526 1528 1530 1532
1474 1470 1466 1463 1461 1458 1456 1455 1455 1453 1453 1456 1457 1457 1456 1455 1454 1457 1458 1460 1462 1464 1466 1468 1471 1474 1477 1480 1483 1487 1491 1494 1497 1501 1505 1509 1513 1516 1519 1521 1524 1526 1528
1469 1465 1461 1458 1455 1451 1449 1448 1447 1445 1445 1447 1449 1451 1450 1447 1448 1449 1450 1451 1453 1456 1458 1461 1463 1466 1469 1472 1476 1479 1484 1488 1491 1494 1498 1502 1507 1510 1513 1516 1519 1521 1523
1464 1460 1455 1451 1447 1444 1441 1440 1439 1437 1437 1438 1439 1441 1443 1443 1443 1443 1443 1444 1446 1448 1451 1454 1456 1459 1462 1465 1468 1472 1476 1481 1485 1488 1492 1496 1500 1504 1508 1511 1513 1516 1518
1458 1453 1448 1443 1439 1436 1433 1431 1430 1429 1429 1430 1431 1432 1434 1436 1436 1437 1438 1440 1441 1442 1444 1447 1450 1452 1455 1458 1461 1465 1469 1474 1478 1481 1486 1490 1494 1498 1501 1505 1508 1510 1513
1453 1447 1441 1436 1432 1428 1425 1423 1421 1421 1421 1421 1422 1424 1425 1427 1428 1430 1432 1434 1436 1437 1439 1441 1443 1446 1449 1451 1455 1458 1462 1467 1471 1475 1479 1484 1487 1491 1495 1499 1502 1505 1508
1449 1442 1436 1430 1426 1422 1418 1415 1413 1412 1412 1413 1414 1415 1416 1418 1421 1423 1426 1428 1431 1433 1435 1437 1439 1441 1443 1446 1449 1452 1456 1460 1465 1469 1473 1477 1482 1486 1490 1494 1498 1500 1503
1449 1441 1434 1427 1421 1416 1412 1408 1404 1403 1403 1404 1405 1407 1408 1410 1413 1415 1418 1421 1425 1428 1431 1433 1435 1438 1440 1443 1446 1449 1453 1456 1460 1464 1468 1473 1478 1482 1486 1490 1493 1496 1499
1446 1439 1431 1423 1417 1411 1406 1402 1397 1395 1395 1395 1397 1399 1399 1402 1405 1408 1411 1414 1418 1421 1426 1429 1432 1435 1437 1441 1444 1448 1451 1455 1459 1462 1465 1469 1474 1479 1482 1485 1489 1492 1495
1442 1435 1428 1421 1414 1408 1402 1396 1392 1389 1389 1389 1390 1391 1392 1394 1398 1401 1404 1407 1411 1416 1421 1425 1428 1431 1434 1438 1442 1446 1450 1454 1457 1460 1463 1467 1471 1476 1478 1481 1484 1488 1490
1438 1432 1426 1419 1412 1405 1398 1392 1387 1385 1384 1384 1384 1385 1386 1389 1391 1394 1397 1401 1406 1411 1416 1421 1425 1428 1431 1435 1439 1443 1448 1451 1455 1458 1461 1464 1468 1472 1475 1477 1481 1484 1487
1436 1430 1425 1418 1411 1404 1396 1389 1385 1382 1382 1381 1381 1380 1381 1383 1385 1389 1393 1397 1401 1406 1412 1417 1422 1425 1429 1433 1436 1440 1445 1449 1452 1455 1459 1462 1465 1469 1472 1475 1478 1481 1484
1434 1429 1423 1418 1411 1405 1397 1390 1386 1383 1381 1380 1379 1377 1377 1379 1381 1385 1389 1393 1398 1402 1408 1413 1418 1422 1426 1430 1433 1438 1442 1446 1450 1453 1457 1460 1463 1466 1469 1472 1475 1478 1480
1434 1428 1423 1418 1412 1407 1401 1395 1390 1385 1382 1380 1378 1377 1376 1377 1379 1383 1386 1390 1394 1399 1404 1408 1413 1418 1422 1426 1430 1434 1438 1442 1446 1451 1454 1457 1461 1464 1466 1469 1472 1475 1477
1434 1428 1424 1419 1414 1409 1405 1399 1394 1390 1386 1382 1380 1378 1377 1377 1379 1382 1385 1388 1391 1395 1399 1403 1408 1412 1417 1421 1425 1429 1433 1437 1442 1446 1449 1453 1456 1459 1463 1466 1469 1472 1474
1434 1429 1424 1420 1415 1411 1408 1403 1397 1393 1390 1386 1384 1382 1379 1379 1380 1382 1384 1386 1389 1392 1395 1399 1403 1407 1411 1415 1420 1424 1428 1432 1435 1440 1444 1448 1453 1455 1458 1461 1464 1467 1470
1434 1429 1425 1421 1416 1412 1409 1405 1401 1396 1393 1389 1386 1384 1382 1381 1381 1382 1384 1386 1388 1390 1392 1395 1399 1402 1406 1410 1414 1418 1422 1426 1430 1433 1438 1441 1446 1450 1453 1457 1460 1462 1465
1435 1431 1426 1422 1418 1413 1410 1407 1403 1399 1396 1393 1390 1388 1386 1384 1384 1385 1386 1388 1389 1390 1391 1393 1396 1399 1402 1405 1410 1414 1417 1421 1426 1429 1432 1434 1439 1443 1447 1451 1454 1457 1460
1436 1432 1428 1423 1419 1415 1411 1408 1404 1401 1399 1397 1395 1393 1391 1389 1388 1388 1389 1390 1391 1392 1392 1394 1396 1398 1399 1402 1405 1409 1412 1417 1420 1424 1427 1430 1433 1438 1442 1445 1448 1452 1455
1438 1434 1429 1425 1421 1416 1412 1410 1407 1403 1401 1399 1398 1397 1396 1394 1392 1391 1391 1392 1393 1394 1394 1395 1396 1397 1399 1401 1403 1406 1408 1412 1415 1419 1423 1427 1429 1434 1438 1441 1444 1447 1449